Location: Alafon
(8.4500°N, 4.2333°E)
Time: 00:24:18
(UTC+00:00)

deb Explorer IX - Pass Details

Date: 28 July 2021
Orbit: 545 x 1091 km, 38.8° (Epoch: 19 September)

Event Time Altitude Azimuth Distance (km) Brightness Sun altitude
Rises 22:35:06 0° 293° (WNW) 3,886 ? -57.2°
Enters shadow 22:35:53 - 292° (WNW) 3,632 ? -57.3°
Reaches altitude 10° 22:38:10 10° 284° (WNW) 2,925 - -57.6°
Maximum altitude 22:44:29 33° 223° (SW) 1,688 - -58.4°
Drops below altitude 10° 22:50:27 10° 162° (SSE) 2,745 - -59.1°
Sets 22:53:15 0° 152° (SSE) 3,617 - -59.5°
